Jerez de la Frontera, Spain

5:16 AM CET on November 22, 2017 (GMT +0100)
Jerez

Weather History for LEJR - December, 2012

Change the Weather History Date:

Wednesday, December 26, 2012

  Actual Average Record
Temperature  
Mean Temperature 50 °F -  
Max Temperature 59 °F 59 °F 70 °F (2015)
Min Temperature 41 °F 40 °F 32 °F (2008)
Degree Days  
Heating Degree Days 15    
Moisture  
Dew Point 45 °F    
Average Humidity 83    
Maximum Humidity 100    
Minimum Humidity 62    
Precipitation  
Precipitation 0.00 in 0.13 in - ()
Sea Level Pressure  
Sea Level Pressure 30.33 in    
Wind  
Wind Speed 3 mph ()    
Max Wind Speed 13 mph    
Max Gust Speed -    
Visibility 12.6 miles    
Events      
Averages and records for this station are not official NWS values.
T = Trace of Precipitation, MM = Missing Value Source: Averaged Metar Reports

Daily Weather History Graph

Daily Weather History Graph

Search for Another Location

Airport or City:

Trip Planner

Search our weather history database for the weather conditions in past years. The results will help you decide how hot, cold, wet, or windy it might be!

Date:

Astronomy

Dec. 26, 2012 Rise Set
Actual Time 8:35 AM CET 6:14 PM CET
Civil Twilight 8:06 AM CET 6:43 PM CET
Nautical Twilight 7:34 AM CET 7:16 PM CET
Astronomical Twilight 7:02 AM CET 7:47 PM CET
Moon 4:56 PM CET (12/26) 6:48 AM CET (12/26)
Length of Visible Light 10h 37m
Length of Day
9h 39m
Waxing Gibbous, 97% of the Moon is Illuminated
Dec 26
Waxing Gibbous
Dec 28
Full
Jan 5
Last Quarter
Jan 11
New
Jan 19
First Quarter

Hourly Weather History & Observations

Time (CET) Temp. Dew Point Humidity Pressure Visibility Wind Dir Wind Speed Gust Speed Precip Events Conditions
1:00 AM 48 °F 46 °F 88% 30.26 in 12 mi West 2.3 mph - -  
5:00 AM 48.2 °F 44.6 °F 87% 30.24 in - Variable 1.2 mph - N/A   Clear
5:30 AM 44.6 °F 42.8 °F 93% 30.24 in - Variable 2.3 mph - N/A   Clear
6:00 AM 44.6 °F 42.8 °F 93% 30.27 in - Variable 1.2 mph - N/A   Clear
6:30 AM 42.8 °F 41.0 °F 93% 30.27 in - Calm Calm - N/A   Clear
7:00 AM 42 °F 42 °F 98% 30.29 in 16 mi Calm Calm - -  
7:00 AM 41.0 °F 41.0 °F 100% 30.27 in - Calm Calm - N/A   Clear
7:30 AM 41.0 °F 41.0 °F 100% 30.27 in - Calm Calm - N/A   Clear
8:00 AM 41.0 °F 41.0 °F 100% 30.30 in - Calm Calm - N/A   Clear
8:30 AM 41.0 °F 41.0 °F 100% 30.30 in - Calm Calm - N/A   Clear
9:00 AM 41.0 °F 41.0 °F 100% 30.33 in - Calm Calm - N/A   Clear
9:30 AM 42.8 °F 42.8 °F 100% 30.33 in - Calm Calm - N/A   Clear
10:00 AM 46.4 °F 44.6 °F 93% 30.33 in - Calm Calm - N/A   Clear
10:30 AM 46.4 °F 46.4 °F 100% 30.36 in - Calm Calm - N/A   Clear
11:00 AM 50.0 °F 48.2 °F 94% 30.36 in - Calm Calm - N/A   Clear
11:30 AM 51.8 °F 50.0 °F 94% 30.36 in - Calm Calm - N/A   Clear
12:30 PM 55.4 °F 50.0 °F 82% 30.36 in - Variable 1.2 mph - N/A   Clear
1:00 PM 58 °F 48 °F 62% 30.37 in 19 mi North 9.2 mph - -   Scattered Clouds
1:00 PM 57.2 °F 46.4 °F 67% 30.36 in - North 9.2 mph - N/A   Clear
1:30 PM 59.0 °F 46.4 °F 63% 30.36 in - North 9.2 mph - N/A   Clear
2:00 PM 57.2 °F 44.6 °F 63% 30.33 in - NNE 9.2 mph - N/A   Clear
2:30 PM 59.0 °F 46.4 °F 63% 30.33 in - NNE 8.1 mph - N/A   Clear
3:00 PM 59.0 °F 46.4 °F 63% 30.33 in - North 8.1 mph - N/A   Clear
3:30 PM 59.0 °F 46.4 °F 63% 30.33 in - North 6.9 mph - N/A   Clear
4:00 PM 59.0 °F 46.4 °F 63% 30.33 in 6.2 mi North 9.2 mph - N/A   Partly Cloudy
4:30 PM 59.0 °F 46.4 °F 63% 30.33 in 6.2 mi North 9.2 mph - N/A   Partly Cloudy
5:00 PM 59.0 °F 46.4 °F 63% 30.33 in - North 11.5 mph - N/A   Clear
5:30 PM 57.2 °F 46.4 °F 67% 30.33 in - North 12.7 mph - N/A   Clear
6:00 PM 55.4 °F 46.4 °F 72% 30.33 in - North 10.4 mph - N/A   Clear
6:30 PM 53.6 °F 46.4 °F 77% 30.33 in - North 9.2 mph - N/A   Clear
7:00 PM 52 °F 48 °F 80% 30.37 in 16 mi North 5.8 mph - -  
7:00 PM 51.8 °F 46.4 °F 82% 30.36 in - NNE 5.8 mph - N/A   Clear
7:30 PM 51.8 °F 46.4 °F 82% 30.36 in - North 5.8 mph - N/A   Clear
8:00 PM 51.8 °F 46.4 °F 82% 30.36 in - NW 6.9 mph - N/A   Clear
8:30 PM 51.8 °F 46.4 °F 82% 30.39 in - West 4.6 mph - N/A   Clear
9:00 PM 48.2 °F 44.6 °F 87% 30.39 in - NNW 4.6 mph - N/A   Clear
9:30 PM 48.2 °F 44.6 °F 87% 30.39 in - North 3.5 mph - N/A   Clear
10:00 PM 48.2 °F 44.6 °F 87% 30.39 in - NNW 6.9 mph - N/A   Clear
10:30 PM 48.2 °F 44.6 °F 87% 30.39 in - North 8.1 mph - N/A   Clear
11:00 PM 48.2 °F 44.6 °F 87% 30.42 in - North 4.6 mph - N/A   Clear